Regional Weather Roundup
Issued by NWS Bismarck, ND

Home | Current Version | Previous Version | Text Only | Print | Product List | Glossary On
Versions: 1 2 3 4 5 6 7 8 9 10 11 12 13 14 15 16 17 18 19 20 21 22 23 24 25 26 27 28 29 30 31 32 33 34 35 36 37 38 39 40 41 42 43 44 45 46 47 48 49 50
162
ASUS43 KBIS 240210
RWRBIS

NWR BROADCAST TEXT
NATIONAL WEATHER SERVICE BISMARCK ND
900 PM CDT TUE MAY 23 2017

NOTE: "FAIR" INDICATES FEW OR NO CLOUDS BELOW 12,000 FEET WITH NO
SIGNIFICANT WEATHER AND/OR OBSTRUCTIONS TO VISIBILITY.


CITY           SKY/WX    TMP DP  RH WIND       PRES   REMARKS
WILLISTON      FAIR      66  35  31 SE10      29.92F
MINOT          FAIR      60  34  37 SE7       29.95F
MINOT AFB      CLEAR     59  36  41 SE7       29.93F
BISMARCK       FAIR      57  38  48 E7        29.99S
DICKINSON      FAIR      56  34  43 E5        29.97F
GARRISON         N/A     55  35  47 SE7       29.96F
HETTINGER ARPT FAIR      54  34  46 NE3       30.01F
JAMESTOWN      CLOUDY    55  42  61 NE5       29.97S
HAZEN          FAIR      59  34  38 SE5       29.99F
LINTON         FAIR      55  43  62 NE7       30.00F
MANDAN         FAIR      54  39  58 SE6       30.00S
STANLEY        FAIR      61  37  41 S7        29.98F
TIOGA          FAIR      63  32  31 S13       29.96F
WATFORD CITY   FAIR      63  34  34 SE9       29.94F
$$

CITY           SKY/WX    TMP DP  RH WIND       PRES   REMARKS
GRAND FORKS    FAIR      57  43  59 E6        29.95S
GRAND FORKS AF FAIR      56  42  60 SE3       29.96S
DEVILS LAKE    FAIR      57  38  48 E5        29.97F
FARGO          CLOUDY    56  44  64 NE9       29.94S
CAVALIER       FAIR      63  37  39 CALM      29.94F
GRAFTON        FAIR      59  46  63 SE6       29.97S
GWINNER        CLOUDY    54  45  71 MISG      29.95S
LANGDON        FAIR      57  41  54 E6        29.97S
ROLLA          FAIR      59  32  36 E3        29.97F
$$

CITY           SKY/WX    TMP DP  RH WIND       PRES   REMARKS
ABERDEEN       FAIR      53  40  61 N9        29.96S
MOBRIDGE       FAIR      56  37  49 NE6       29.96F
BUFFALO          N/A     59  36  42 E9        29.94F
RAPID CITY     FAIR      52  36  54 NE7       30.02F
GLASGOW        FAIR      68  31  25 SE15      29.82F
SIDNEY         FAIR      66  34  30 S9        29.91F
WOLF POINT     FAIR      71  31  22 S8        29.86F
GLENDIVE       FAIR      66  31  27 S10       29.92F
MILES CITY     FAIR      67  32  27 S10       29.92F
BAKER          FAIR      59  36  42 SE9       29.98F
$$

CITY           SKY/WX    TMP DP  RH WIND       PRES   REMARKS
BILLINGS       FAIR      67  41  38 SE14G23   29.88F
GREAT FALLS    FAIR      70  49  47 SW8       29.74F
REGINA         PTCLDY    70  30  23 S15G22    29.79F
ESTEVAN        CLOUDY    63  37  39 SE12      29.90F
$$





USA.gov is the U.S. government's official web portal to all federal, state and local government web resources and services.